User: anonymous   Login
Location: Unspecified
(0.0000°N, 0.0000°E)
Time: 22:22:10
(UTC+00:00)
Language:

TBA - TO BE ASSIGNED - Orbit

View from above orbital plane
View from above orbital plane
View from above satellite
View from above satellite

Ground track
Ground track

The orbit is defined by the following mean orbital elements,

1 67593U          26145.60018105 +.00000000 +00000-0 +12064-3 0 00008
2 67593  97.2852 210.7624 0000423  82.2392 277.8899 15.33440254    03
Epoch (UTC): 25 May 2026 14:24:15
Eccentricity: 0.0000423
inclination: 97.2852°
perigee height: 465 km
apogee height: 466 km
right ascension of ascending node: 210.7624°
argument of perigee: 82.2392°
revolutions per day: 15.33440254
mean anomaly at epoch: 277.8899°

The dashed part of the orbit path shows where the satellite is in the earth's shadow,  

DLR